contact:dominique.lefevre@mio.osupytheas.fr, maurice.libes@osupytheas.fr, didier.mallarino@osupytheas.fr
Project:EMSO http://www.emso-fr.org/EMSO-France
Depth: 2436.0 m
Title:EMSO Ligure Ouest : Data MII capteur AQUADOPP
Date,Latitude,Longitude,X_East,Y_North,Z_Up,Amplitude_X,Amplitude_Y,Amplitude_Z,Batterie,SoundSpeed,Heading,Pitch,Roll,Pressure,TIS,Speed,Direction
, degrees North, degrees East, m.s-1, m.s-1,m.s-1, 1, 1, 1, Volt, m.s-1, degree, degree, degree, dbar, degree_C, m.s-1, degree
2021-01-19T00:04:03,42.805,6.029,0.019,-0.031,0.007,107.0,108.0,104.0,13.3,1505.3,325.4,-0.7,1.8,2470.542,13.31,0.036,148.5
2021-01-19T00:07:03,42.805,6.029,0.007,-0.015,-0.012,108.0,109.0,103.0,13.4,1505.3,324.7,-0.7,1.9,2470.5,13.31,0.016,155.0
2021-01-19T00:10:03,42.805,6.029,0.032,-0.016,0.01,106.0,108.0,104.0,13.4,1505.3,325.3,-0.8,1.8,2470.519,13.32,0.035,116.6
2021-01-19T00:13:03,42.805,6.029,0.021,-0.016,0.034,107.0,109.0,103.0,13.4,1505.3,327.3,-0.7,1.8,2470.513,13.32,0.026,127.3
2021-01-19T00:16:03,42.805,6.029,0.035,-0.019,0.006,108.0,111.0,105.0,13.3,1505.3,323.3,-0.7,1.9,2470.544,13.32,0.039,118.5
2021-01-19T00:19:03,42.805,6.029,-0.001,0.001,-0.022,108.0,109.0,104.0,13.4,1505.3,323.4,-0.7,1.8,2470.533,13.32,0.001,315.0
2021-01-19T00:22:03,42.805,6.029,-0.013,-0.022,-0.023,108.0,110.0,103.0,13.4,1505.3,323.3,-0.7,1.8,2470.474,13.33,0.025,210.6
2021-01-19T00:25:03,42.805,6.029,0.036,-0.01,0.022,106.0,109.0,103.0,13.3,1505.3,323.8,-0.6,1.8,2470.509,13.33,0.037,105.5
2021-01-19T00:28:03,42.805,6.029,0.022,0.001,-0.02,108.0,107.0,104.0,13.4,1505.3,327.2,-0.7,1.8,2470.466,13.33,0.022,87.4
2021-01-19T00:31:03,42.805,6.029,0.033,0.0,0.047,108.0,107.0,102.0,13.4,1505.3,328.1,-0.7,1.8,2470.47,13.33,0.033,90.0
2021-01-19T00:34:03,42.805,6.029,0.019,-0.03,0.001,107.0,108.0,103.0,13.4,1505.3,326.9,-0.7,1.8,2470.48,13.33,0.035,147.7
2021-01-19T00:37:03,42.805,6.029,-0.023,-0.04,-0.039,108.0,111.0,103.0,13.3,1505.3,322.8,-0.7,1.8,2470.484,13.33,0.046,209.9
2021-01-19T00:40:03,42.805,6.029,-0.003,-0.028,-0.015,107.0,109.0,104.0,13.4,1505.3,324.3,-0.7,1.8,2470.472,13.33,0.028,186.1
2021-01-19T00:43:03,42.805,6.029,0.016,-0.026,-0.007,107.0,109.0,103.0,13.3,1505.3,326.9,-0.7,1.8,2470.449,13.33,0.03,148.4
2021-01-19T00:46:03,42.805,6.029,-0.018,-0.027,-0.01,107.0,109.0,104.0,13.3,1505.3,327.0,-0.7,1.8,2470.469,13.33,0.032,213.7
2021-01-19T00:49:03,42.805,6.029,0.015,-0.004,0.008,108.0,109.0,104.0,13.3,1505.3,326.4,-0.7,1.8,2470.447,13.33,0.015,104.9
2021-01-19T00:52:03,42.805,6.029,-0.017,-0.006,-0.03,108.0,109.0,104.0,13.4,1505.3,326.5,-0.7,1.8,2470.493,13.33,0.018,250.6
2021-01-19T00:55:03,42.805,6.029,-0.004,-0.031,-0.021,106.0,110.0,104.0,13.4,1505.3,326.1,-0.7,1.8,2470.402,13.33,0.031,187.3
2021-01-19T00:58:03,42.805,6.029,0.032,0.0,0.012,107.0,109.0,103.0,13.4,1505.3,326.4,-0.7,1.8,2470.48,13.33,0.032,90.0
2021-01-19T01:04:03,42.805,6.029,0.043,-0.011,-0.017,111.0,110.0,104.0,13.3,1505.3,327.7,-0.7,1.8,2470.503,13.31,0.044,104.3
2021-01-19T01:07:03,42.805,6.029,0.031,-0.011,0.0,107.0,108.0,103.0,13.4,1505.3,324.3,-0.7,1.8,2470.484,13.31,0.032,109.5
2021-01-19T01:10:03,42.805,6.029,0.005,-0.035,0.023,108.0,110.0,105.0,13.4,1505.3,322.8,-0.7,1.8,2470.476,13.32,0.035,171.9
2021-01-19T01:13:03,42.805,6.029,0.029,-0.017,0.008,107.0,108.0,103.0,13.3,1505.3,324.1,-0.7,1.8,2470.439,13.32,0.033,120.4
2021-01-19T01:16:03,42.805,6.029,0.011,-0.028,-0.006,107.0,109.0,103.0,13.4,1505.3,325.2,-0.7,1.8,2470.458,13.32,0.03,158.6
2021-01-19T01:19:03,42.805,6.029,0.041,-0.018,-0.011,109.0,109.0,103.0,13.3,1505.3,324.8,-0.7,1.8,2470.496,13.32,0.044,113.7
2021-01-19T01:22:03,42.805,6.029,0.016,-0.043,-0.032,106.0,108.0,104.0,13.3,1505.3,324.6,-0.7,1.8,2470.429,13.32,0.045,159.6
2021-01-19T01:25:03,42.805,6.029,0.028,-0.014,-0.008,108.0,108.0,104.0,13.3,1505.3,324.9,-0.7,1.8,2470.466,13.33,0.031,116.6
2021-01-19T01:28:03,42.805,6.029,0.03,-0.026,-0.022,107.0,108.0,103.0,13.3,1505.3,326.6,-0.7,1.8,2470.456,13.33,0.039,130.9
2021-01-19T01:31:03,42.805,6.029,-0.005,-0.033,-0.038,108.0,110.0,103.0,13.4,1505.3,323.8,-0.7,1.8,2470.478,13.33,0.033,188.6
2021-01-19T01:34:03,42.805,6.029,-0.012,-0.038,-0.06,108.0,108.0,105.0,13.3,1505.3,325.4,-0.7,1.8,2470.41,13.33,0.039,197.5
2021-01-19T01:37:03,42.805,6.029,0.016,-0.01,0.012,107.0,109.0,103.0,13.3,1505.3,325.5,-0.7,1.8,2470.454,13.33,0.018,122.0
2021-01-19T01:40:03,42.805,6.029,0.0,-0.029,-0.007,108.0,109.0,103.0,13.4,1505.3,324.6,-0.7,1.8,2470.476,13.33,0.028,180.0
2021-01-19T01:43:03,42.805,6.029,0.018,-0.028,-0.005,107.0,107.0,104.0,13.4,1505.3,325.5,-0.7,1.8,2470.411,13.33,0.033,147.3
2021-01-19T01:46:03,42.805,6.029,0.017,-0.019,-0.006,108.0,107.0,104.0,13.3,1505.3,326.6,-0.7,1.8,2470.432,13.33,0.025,138.2
2021-01-19T01:49:03,42.805,6.029,0.001,-0.028,-0.029,108.0,108.0,103.0,13.4,1505.3,328.2,-0.7,1.8,2470.439,13.33,0.028,178.0
2021-01-19T01:52:03,42.805,6.029,-0.009,-0.037,-0.009,107.0,108.0,103.0,13.3,1505.3,326.5,-0.7,1.8,2470.431,13.33,0.038,193.7
2021-01-19T01:55:03,42.805,6.029,0.029,0.0,0.005,108.0,109.0,104.0,13.4,1505.3,326.7,-0.7,1.8,2470.429,13.33,0.028,90.0
2021-01-19T01:58:03,42.805,6.029,0.017,-0.014,-0.008,109.0,108.0,105.0,13.4,1505.3,325.9,-0.7,1.8,2470.393,13.33,0.022,129.5
2021-01-19T02:04:03,42.805,6.029,0.016,-0.032,-0.021,108.0,108.0,104.0,13.4,1505.3,325.5,-0.7,1.8,2470.458,13.31,0.035,153.4
2021-01-19T02:07:03,42.805,6.029,0.005,-0.016,0.001,107.0,107.0,104.0,13.3,1505.3,323.1,-0.7,1.8,2470.447,13.31,0.016,162.6
2021-01-19T02:10:03,42.805,6.029,0.001,-0.01,-0.023,109.0,110.0,103.0,13.4,1505.3,325.4,-0.7,1.8,2470.476,13.32,0.01,174.3
2021-01-19T02:13:03,42.805,6.029,0.0,0.0,0.021,108.0,109.0,105.0,13.4,1505.3,323.5,-0.7,1.8,2470.406,13.32,0.0,0.0
2021-01-19T02:16:03,42.805,6.029,-0.006,-0.009,0.003,108.0,109.0,105.0,13.3,1505.3,325.1,-0.7,1.8,2470.437,13.32,0.01,213.7
2021-01-19T02:19:03,42.805,6.029,0.026,-0.015,-0.006,107.0,111.0,103.0,13.4,1505.3,323.3,-0.7,1.8,2470.447,13.32,0.03,120.0
2021-01-19T02:22:03,42.805,6.029,0.029,-0.011,0.006,105.0,108.0,104.0,13.3,1505.3,328.0,-0.7,1.8,2470.425,13.33,0.031,110.8
2021-01-19T02:25:03,42.805,6.029,0.031,-0.014,0.023,109.0,109.0,104.0,13.3,1505.3,324.9,-0.7,1.8,2470.443,13.33,0.034,114.3
2021-01-19T02:28:03,42.805,6.029,0.006,-0.032,-0.039,106.0,109.0,105.0,13.4,1505.3,324.4,-0.7,1.8,2470.425,13.33,0.032,169.4
2021-01-19T02:31:03,42.805,6.029,0.004,-0.025,0.026,106.0,110.0,104.0,13.4,1505.3,324.3,-0.7,1.9,2470.45,13.33,0.025,170.9
2021-01-19T02:34:03,42.805,6.029,0.032,-0.016,-0.006,109.0,109.0,104.0,13.3,1505.3,324.4,-0.7,1.8,2470.446,13.33,0.035,116.6
2021-01-19T02:37:03,42.805,6.029,0.043,-0.01,-0.006,107.0,109.0,105.0,13.4,1505.3,325.6,-0.7,1.8,2470.417,13.33,0.044,103.1
2021-01-19T02:40:03,42.805,6.029,0.002,-0.004,-0.008,109.0,109.0,104.0,13.4,1505.3,326.9,-0.7,1.8,2470.422,13.33,0.004,153.4
2021-01-19T02:43:03,42.805,6.029,0.015,-0.014,0.009,107.0,109.0,104.0,13.4,1505.3,325.1,-0.7,1.8,2470.413,13.33,0.02,133.0
2021-01-19T02:46:03,42.805,6.029,0.027,0.0,0.009,107.0,109.0,104.0,13.3,1505.3,325.8,-0.7,1.8,2470.432,13.33,0.026,90.0
2021-01-19T02:49:03,42.805,6.029,0.006,-0.01,-0.008,108.0,109.0,103.0,13.3,1505.3,324.5,-0.7,1.8,2470.414,13.33,0.011,149.0
2021-01-19T02:52:03,42.805,6.029,0.019,-0.015,-0.006,107.0,109.0,104.0,13.4,1505.3,326.5,-0.7,1.8,2470.4,13.33,0.024,128.3
2021-01-19T02:55:03,42.805,6.029,-0.002,-0.021,-0.02,110.0,109.0,104.0,13.4,1505.3,323.9,-0.7,1.8,2470.407,13.33,0.021,185.4
2021-01-19T02:58:03,42.805,6.029,0.008,-0.011,0.013,108.0,110.0,104.0,13.3,1505.3,324.0,-0.7,1.9,2470.401,13.33,0.013,144.0
2021-01-19T03:04:03,42.805,6.029,0.038,-0.022,-0.008,108.0,109.0,104.0,13.3,1505.3,324.1,-0.7,1.8,2470.485,13.31,0.043,120.1
2021-01-19T03:07:03,42.805,6.029,0.004,-0.033,-0.004,108.0,109.0,103.0,13.4,1505.3,325.5,-0.7,1.8,2470.409,13.31,0.033,173.1
2021-01-19T03:10:03,42.805,6.029,0.009,-0.039,-0.02,108.0,110.0,103.0,13.3,1505.3,323.5,-0.7,1.9,2470.419,13.32,0.04,167.0
2021-01-19T03:13:03,42.805,6.029,0.028,-0.019,0.012,107.0,109.0,105.0,13.4,1505.3,323.2,-0.7,1.8,2470.412,13.32,0.033,124.2
2021-01-19T03:16:03,42.805,6.029,0.021,-0.019,0.009,109.0,109.0,104.0,13.4,1505.3,326.1,-0.7,1.8,2470.399,13.32,0.028,132.1
2021-01-19T03:19:03,42.805,6.029,0.019,-0.026,-0.004,107.0,109.0,105.0,13.4,1505.3,326.2,-0.7,1.8,2470.412,13.32,0.032,143.8
2021-01-19T03:22:03,42.805,6.029,0.023,-0.036,0.0,108.0,110.0,104.0,13.3,1505.3,323.5,-0.7,1.8,2470.385,13.32,0.042,147.4
2021-01-19T03:25:03,42.805,6.029,0.004,-0.036,-0.012,107.0,109.0,106.0,13.3,1505.3,324.0,-0.8,1.8,2470.392,13.32,0.036,173.7
2021-01-19T03:28:03,42.805,6.029,0.044,-0.002,0.009,109.0,110.0,104.0,13.4,1505.3,324.2,-0.7,1.8,2470.382,13.33,0.044,92.6
2021-01-19T03:31:03,42.805,6.029,0.01,-0.023,-0.02,108.0,110.0,105.0,13.4,1505.3,326.6,-0.7,1.8,2470.374,13.33,0.025,156.5
2021-01-19T03:34:03,42.805,6.029,0.012,-0.021,0.007,106.0,109.0,103.0,13.4,1505.3,325.6,-0.7,1.8,2470.424,13.32,0.024,150.3
2021-01-19T03:37:03,42.805,6.029,0.014,-0.007,0.023,108.0,110.0,105.0,13.4,1505.3,324.5,-0.7,1.8,2470.408,13.33,0.015,116.6
2021-01-19T03:40:03,42.805,6.029,0.008,-0.021,-0.005,108.0,110.0,104.0,13.3,1505.3,324.7,-0.7,1.8,2470.381,13.33,0.022,159.1
2021-01-19T03:43:03,42.805,6.029,0.031,-0.01,0.019,109.0,109.0,103.0,13.4,1505.3,325.1,-0.7,1.8,2470.379,13.33,0.032,107.9
2021-01-19T03:46:03,42.805,6.029,0.017,-0.021,-0.013,107.0,110.0,104.0,13.3,1505.3,325.3,-0.7,1.8,2470.372,13.33,0.027,141.0
2021-01-19T03:49:03,42.805,6.029,-0.017,-0.028,-0.037,109.0,109.0,105.0,13.4,1505.3,327.1,-0.7,1.9,2470.42,13.33,0.032,211.3
2021-01-19T03:52:03,42.805,6.029,0.012,-0.013,0.025,109.0,111.0,106.0,13.4,1505.3,323.8,-0.7,1.8,2470.37,13.33,0.017,137.3
2021-01-19T03:55:03,42.805,6.029,0.033,-0.025,0.015,108.0,109.0,102.0,13.4,1505.3,325.3,-0.7,1.8,2470.36,13.33,0.041,127.1
2021-01-19T03:58:03,42.805,6.029,0.011,-0.029,-0.003,109.0,108.0,104.0,13.4,1505.3,325.0,-0.7,1.8,2470.326,13.33,0.031,159.2
2021-01-19T04:04:03,42.805,6.029,0.007,-0.006,0.023,109.0,110.0,104.0,13.4,1505.3,325.9,-0.8,1.8,2470.409,13.31,0.009,130.6
2021-01-19T04:07:03,42.805,6.029,-0.006,-0.033,-0.002,108.0,111.0,104.0,13.4,1505.3,325.7,-0.7,1.8,2470.425,13.31,0.033,190.3
2021-01-19T04:10:03,42.805,6.029,-0.01,-0.016,-0.016,109.0,109.0,103.0,13.4,1505.3,324.2,-0.7,1.8,2470.381,13.32,0.018,212.0
2021-01-19T04:13:03,42.805,6.029,0.03,-0.026,-0.011,108.0,110.0,104.0,13.4,1505.3,326.9,-0.7,1.8,2470.399,13.32,0.039,130.9
2021-01-19T04:16:03,42.805,6.029,0.032,-0.018,0.005,108.0,109.0,105.0,13.4,1505.3,323.0,-0.7,1.8,2470.39,13.32,0.036,119.4
2021-01-19T04:19:03,42.805,6.029,0.026,-0.027,-0.011,108.0,110.0,105.0,13.4,1505.3,323.6,-0.7,1.8,2470.376,13.32,0.037,136.1
2021-01-19T04:22:03,42.805,6.029,0.024,-0.008,-0.018,109.0,109.0,105.0,13.3,1505.3,323.2,-0.7,1.8,2470.368,13.32,0.025,108.4
2021-01-19T04:25:03,42.805,6.029,0.023,-0.019,-0.02,109.0,109.0,105.0,13.4,1505.3,323.5,-0.7,1.8,2470.38,13.32,0.029,129.6
2021-01-19T04:28:03,42.805,6.029,0.032,-0.028,0.044,107.0,109.0,104.0,13.3,1505.3,325.6,-0.7,1.8,2470.4,13.32,0.042,131.2
2021-01-19T04:34:03,42.805,6.029,0.026,-0.011,-0.019,107.0,110.0,105.0,13.3,1505.3,324.2,-0.7,1.8,2470.4,13.31,0.028,112.9
2021-01-19T04:37:03,42.805,6.029,0.026,-0.015,0.007,108.0,110.0,105.0,13.4,1505.3,324.5,-0.7,1.8,2470.405,13.31,0.03,120.0
2021-01-19T04:40:03,42.805,6.029,0.027,-0.012,0.005,107.0,110.0,104.0,13.3,1505.3,327.5,-0.7,1.8,2470.377,13.32,0.029,114.0
2021-01-19T04:43:03,42.805,6.029,0.03,-0.032,-0.012,108.0,109.0,105.0,13.3,1505.3,325.0,-0.7,1.8,2470.41,13.32,0.043,136.9
2021-01-19T04:46:03,42.805,6.029,0.037,-0.019,0.013,109.0,109.0,104.0,13.4,1505.3,324.9,-0.7,1.9,2470.364,13.32,0.041,117.2
2021-01-19T04:49:03,42.805,6.029,-0.004,-0.021,0.002,109.0,110.0,103.0,13.4,1505.3,325.7,-0.7,1.8,2470.381,13.32,0.021,190.8
2021-01-19T04:52:03,42.805,6.029,0.031,-0.034,-0.007,107.0,110.0,105.0,13.3,1505.3,324.1,-0.7,1.8,2470.378,13.32,0.046,137.6
2021-01-19T04:55:03,42.805,6.029,0.02,-0.029,0.001,107.0,110.0,104.0,13.3,1505.3,326.3,-0.7,1.8,2470.364,13.32,0.035,145.4
2021-01-19T04:58:03,42.805,6.029,0.026,-0.018,-0.001,108.0,111.0,105.0,13.3,1505.3,325.1,-0.7,1.8,2470.406,13.32,0.031,124.7
2021-01-19T05:04:03,42.805,6.029,0.042,-0.028,0.0,108.0,110.0,104.0,13.4,1505.3,325.0,-0.7,1.8,2470.422,13.31,0.05,123.7
2021-01-19T05:07:03,42.805,6.029,0.026,-0.023,0.018,108.0,111.0,104.0,13.3,1505.3,327.8,-0.7,1.8,2470.456,13.31,0.034,131.5
2021-01-19T05:10:03,42.805,6.029,0.046,-0.009,0.017,108.0,110.0,103.0,13.3,1505.3,325.3,-0.7,1.8,2470.381,13.32,0.046,101.1
2021-01-19T05:13:03,42.805,6.029,0.03,-0.001,0.02,108.0,110.0,104.0,13.4,1505.3,325.9,-0.7,1.8,2470.385,13.32,0.03,91.9
2021-01-19T05:16:03,42.805,6.029,0.024,-0.011,0.003,108.0,109.0,104.0,13.3,1505.3,324.5,-0.7,1.8,2470.381,13.32,0.026,114.6
2021-01-19T05:19:03,42.805,6.029,0.016,-0.001,-0.002,109.0,110.0,104.0,13.4,1505.3,326.9,-0.7,1.8,2470.378,13.32,0.016,93.6
2021-01-19T05:22:03,42.805,6.029,0.019,-0.037,0.012,107.0,110.0,105.0,13.4,1505.3,328.4,-0.7,1.8,2470.369,13.32,0.041,152.8
2021-01-19T05:25:03,42.805,6.029,0.02,-0.005,0.0,109.0,109.0,104.0,13.4,1505.3,323.9,-0.8,1.9,2470.359,13.32,0.02,104.0
2021-01-19T05:28:03,42.805,6.029,-0.003,-0.022,-0.033,107.0,109.0,105.0,13.4,1505.3,326.5,-0.7,1.8,2470.364,13.32,0.022,187.8
2021-01-19T05:31:03,42.805,6.029,0.042,-0.014,0.029,108.0,109.0,105.0,13.4,1505.3,323.6,-0.7,1.8,2470.371,13.32,0.044,108.4
2021-01-19T05:34:03,42.805,6.029,0.011,-0.008,0.002,108.0,111.0,104.0,13.4,1505.3,324.0,-0.7,1.8,2470.363,13.32,0.013,126.0
2021-01-19T05:37:03,42.805,6.029,0.012,-0.014,-0.04,108.0,110.0,105.0,13.3,1505.3,326.4,-0.7,1.8,2470.359,13.32,0.018,139.4
2021-01-19T05:40:03,42.805,6.029,-0.009,-0.008,-0.019,107.0,111.0,105.0,13.4,1505.3,324.3,-0.7,1.8,2470.338,13.32,0.012,228.4
2021-01-19T05:43:03,42.805,6.029,0.035,0.003,0.024,107.0,110.0,105.0,13.4,1505.3,326.9,-0.7,1.9,2470.361,13.32,0.035,85.1
2021-01-19T05:49:03,42.805,6.029,0.022,-0.024,0.011,108.0,110.0,104.0,13.4,1505.2,326.0,-0.7,1.8,2470.399,13.3,0.032,137.5
2021-01-19T05:52:03,42.805,6.029,0.024,-0.014,0.031,108.0,111.0,104.0,13.4,1505.3,324.4,-0.7,1.8,2470.374,13.31,0.027,120.3
2021-01-19T05:55:03,42.805,6.029,0.009,-0.013,0.008,108.0,111.0,104.0,13.4,1505.3,327.7,-0.7,1.8,2470.402,13.32,0.015,145.3
2021-01-19T05:58:03,42.805,6.029,0.022,-0.012,-0.004,108.0,111.0,105.0,13.4,1505.3,324.0,-0.7,1.8,2470.359,13.32,0.025,118.6
2021-01-19T06:04:03,42.805,6.029,0.006,-0.016,-0.012,108.0,110.0,105.0,13.4,1505.2,324.7,-0.8,1.8,2470.433,13.3,0.017,159.4
2021-01-19T06:07:03,42.805,6.029,-0.004,-0.011,-0.015,109.0,110.0,104.0,13.4,1505.3,327.7,-0.7,1.8,2470.421,13.31,0.011,200.0
2021-01-19T06:10:03,42.805,6.029,0.032,-0.024,-0.01,108.0,109.0,104.0,13.3,1505.3,322.8,-0.7,1.8,2470.401,13.32,0.04,126.9
2021-01-19T06:13:03,42.805,6.029,0.029,-0.017,0.028,109.0,112.0,105.0,13.4,1505.3,324.2,-0.7,1.8,2470.392,13.32,0.033,120.4
2021-01-19T06:16:03,42.805,6.029,0.006,-0.022,0.004,108.0,111.0,104.0,13.3,1505.3,327.2,-0.7,1.9,2470.398,13.32,0.022,164.7
2021-01-19T06:19:03,42.805,6.029,-0.004,-0.023,-0.004,109.0,111.0,104.0,13.3,1505.3,327.6,-0.7,1.8,2470.39,13.32,0.023,189.9
2021-01-19T06:22:03,42.805,6.029,0.027,-0.006,0.013,109.0,110.0,105.0,13.3,1505.3,327.5,-0.7,1.8,2470.395,13.32,0.027,102.5
2021-01-19T06:25:03,42.805,6.029,0.032,-0.012,-0.007,109.0,110.0,104.0,13.3,1505.3,327.5,-0.7,1.9,2470.393,13.32,0.034,110.6
2021-01-19T06:28:03,42.805,6.029,0.032,-0.004,-0.006,108.0,110.0,104.0,13.3,1505.3,328.4,-0.7,1.8,2470.389,13.32,0.032,97.1
2021-01-19T06:31:03,42.805,6.029,0.01,-0.007,-0.024,110.0,111.0,105.0,13.4,1505.3,327.9,-0.7,1.8,2470.368,13.32,0.012,125.0
2021-01-19T06:34:03,42.805,6.029,0.023,-0.005,0.004,110.0,111.0,105.0,13.4,1505.3,328.1,-0.7,1.8,2470.361,13.32,0.023,102.3
2021-01-19T06:37:03,42.805,6.029,0.005,-0.017,-0.003,109.0,110.0,104.0,13.4,1505.3,327.8,-0.7,1.8,2470.395,13.32,0.017,163.6
2021-01-19T06:40:03,42.805,6.029,0.049,-0.036,-0.004,110.0,112.0,104.0,13.4,1505.3,325.2,-0.8,1.8,2470.365,13.32,0.06,126.3
2021-01-19T06:43:03,42.805,6.029,0.04,-0.039,0.034,109.0,112.0,104.0,13.4,1505.3,324.9,-0.7,1.8,2470.413,13.32,0.055,134.3
2021-01-19T06:46:03,42.805,6.029,0.005,-0.027,-0.012,109.0,112.0,105.0,13.4,1505.3,325.8,-0.7,1.8,2470.346,13.32,0.027,169.5
2021-01-19T06:49:03,42.805,6.029,0.032,-0.024,-0.025,109.0,110.0,105.0,13.3,1505.3,326.6,-0.7,1.8,2470.381,13.32,0.04,126.9
2021-01-19T06:52:03,42.805,6.029,0.04,0.003,0.005,108.0,111.0,105.0,13.3,1505.3,326.0,-0.7,1.8,2470.365,13.32,0.04,85.7
2021-01-19T06:55:03,42.805,6.029,0.01,-0.037,-0.034,108.0,110.0,105.0,13.4,1505.3,324.3,-0.7,1.8,2470.396,13.32,0.038,164.9
2021-01-19T06:58:03,42.805,6.029,0.012,-0.003,-0.024,108.0,111.0,105.0,13.4,1505.3,324.0,-0.7,1.8,2470.417,13.32,0.012,104.0
2021-01-19T07:04:03,42.805,6.029,0.019,-0.026,-0.014,108.0,111.0,105.0,13.4,1505.3,328.1,-0.7,1.8,2470.446,13.31,0.032,143.8
2021-01-19T07:07:03,42.805,6.029,0.026,-0.007,-0.008,109.0,110.0,105.0,13.3,1505.3,323.6,-0.7,1.8,2470.42,13.31,0.026,105.1
2021-01-19T07:10:03,42.805,6.029,0.009,0.006,-0.012,109.0,109.0,105.0,13.3,1505.3,325.1,-0.7,1.8,2470.421,13.32,0.01,56.3
2021-01-19T07:13:03,42.805,6.029,0.022,-0.019,-0.026,110.0,110.0,104.0,13.4,1505.3,327.3,-0.7,1.8,2470.394,13.32,0.029,130.8
2021-01-19T07:16:03,42.805,6.029,0.023,-0.014,0.012,110.0,112.0,106.0,13.4,1505.3,325.2,-0.7,1.8,2470.413,13.32,0.026,121.3
2021-01-19T07:19:03,42.805,6.029,0.029,-0.025,-0.027,108.0,112.0,104.0,13.4,1505.3,324.7,-0.7,1.8,2470.399,13.32,0.038,130.8
2021-01-19T07:22:03,42.805,6.029,0.03,-0.014,-0.019,108.0,111.0,105.0,13.4,1505.3,328.3,-0.7,1.8,2470.434,13.32,0.033,115.0
2021-01-19T07:25:03,42.805,6.029,0.04,-0.041,0.019,109.0,111.0,105.0,13.3,1505.3,325.3,-0.7,1.8,2470.404,13.32,0.057,135.7
2021-01-19T07:28:03,42.805,6.029,0.025,-0.03,-0.003,106.0,112.0,105.0,13.3,1505.3,326.8,-0.7,1.8,2470.455,13.32,0.039,140.2
2021-01-19T07:31:03,42.805,6.029,0.021,-0.022,-0.046,108.0,111.0,105.0,13.4,1505.3,328.1,-0.7,1.8,2470.389,13.32,0.03,136.3
2021-01-19T07:34:03,42.805,6.029,0.006,-0.009,-0.003,109.0,111.0,105.0,13.4,1505.3,323.0,-0.7,1.8,2470.391,13.32,0.01,146.3
2021-01-19T07:37:03,42.805,6.029,0.029,-0.023,0.029,108.0,111.0,104.0,13.4,1505.3,326.5,-0.7,1.8,2470.458,13.32,0.037,128.4
2021-01-19T07:40:03,42.805,6.029,0.016,-0.026,-0.006,108.0,111.0,105.0,13.4,1505.3,325.6,-0.7,1.8,2470.428,13.32,0.03,148.4
2021-01-19T07:43:03,42.805,6.029,0.037,-0.017,-0.004,109.0,111.0,106.0,13.4,1505.3,325.5,-0.7,1.8,2470.437,13.32,0.04,114.7
2021-01-19T07:46:03,42.805,6.029,0.024,-0.015,-0.022,109.0,111.0,105.0,13.4,1505.3,327.8,-0.7,1.8,2470.387,13.32,0.028,122.0
2021-01-19T07:49:03,42.805,6.029,0.002,-0.016,0.013,110.0,111.0,104.0,13.3,1505.3,327.1,-0.7,1.8,2470.414,13.32,0.016,172.9
2021-01-19T07:52:03,42.805,6.029,0.036,-0.019,-0.003,110.0,110.0,104.0,13.4,1505.3,323.2,-0.7,1.8,2470.448,13.32,0.04,117.8
2021-01-19T07:55:03,42.805,6.029,0.043,-0.016,-0.011,108.0,110.0,105.0,13.3,1505.3,324.8,-0.7,1.8,2470.426,13.32,0.045,110.4
2021-01-19T07:58:03,42.805,6.029,0.033,-0.018,-0.014,110.0,111.0,105.0,13.4,1505.3,324.4,-0.7,1.8,2470.428,13.32,0.037,118.6
2021-01-19T08:04:03,42.805,6.029,0.028,-0.015,-0.012,108.0,109.0,104.0,13.4,1505.2,324.4,-0.7,1.8,2470.463,13.3,0.031,118.2
2021-01-19T08:07:03,42.805,6.029,0.037,-0.002,0.032,108.0,109.0,104.0,13.4,1505.3,324.9,-0.7,1.8,2470.451,13.31,0.037,93.1
2021-01-19T08:10:03,42.805,6.029,0.027,-0.02,0.003,108.0,110.0,105.0,13.4,1505.3,328.2,-0.7,1.8,2470.492,13.31,0.033,126.5
2021-01-19T08:13:03,42.805,6.029,0.034,-0.006,0.02,109.0,109.0,105.0,13.4,1505.3,327.9,-0.7,1.8,2470.45,13.32,0.034,100.0
2021-01-19T08:16:03,42.805,6.029,0.016,-0.01,0.02,110.0,110.0,104.0,13.4,1505.3,327.9,-0.7,1.9,2470.449,13.32,0.018,122.0
2021-01-19T08:19:03,42.805,6.029,0.032,-0.007,0.009,109.0,110.0,104.0,13.3,1505.3,328.0,-0.7,1.8,2470.434,13.32,0.032,102.3
2021-01-19T08:22:03,42.805,6.029,0.036,-0.03,0.009,109.0,110.0,104.0,13.4,1505.3,326.9,-0.7,1.8,2470.445,13.32,0.046,129.8
2021-01-19T08:25:03,42.805,6.029,0.024,-0.009,-0.024,109.0,110.0,105.0,13.4,1505.3,324.7,-0.7,1.8,2470.481,13.32,0.025,110.6
2021-01-19T08:28:03,42.805,6.029,0.013,-0.026,-0.002,108.0,111.0,104.0,13.3,1505.3,325.9,-0.7,1.8,2470.438,13.32,0.029,153.4
2021-01-19T08:31:03,42.805,6.029,0.045,-0.009,0.024,109.0,111.0,105.0,13.4,1505.3,327.7,-0.7,1.9,2470.47,13.32,0.045,101.3
2021-01-19T08:34:03,42.805,6.029,0.032,-0.019,-0.029,110.0,111.0,104.0,13.3,1505.3,325.9,-0.7,1.8,2470.487,13.32,0.037,120.7
2021-01-19T08:37:03,42.805,6.029,0.009,-0.005,-0.024,109.0,109.0,106.0,13.4,1505.3,324.7,-0.7,1.8,2470.49,13.32,0.01,119.1
2021-01-19T08:40:03,42.805,6.029,0.028,-0.008,-0.01,109.0,110.0,105.0,13.3,1505.3,323.2,-0.7,1.8,2470.43,13.32,0.029,105.9
2021-01-19T08:43:03,42.805,6.029,0.028,-0.023,0.023,110.0,110.0,104.0,13.4,1505.3,326.3,-0.7,1.8,2470.451,13.32,0.036,129.4
2021-01-19T08:46:03,42.805,6.029,0.024,-0.016,0.016,109.0,111.0,104.0,13.4,1505.3,325.9,-0.7,1.8,2470.497,13.32,0.028,123.7
2021-01-19T08:49:03,42.805,6.029,0.011,-0.005,0.01,107.0,110.0,105.0,13.4,1505.3,323.7,-0.7,1.8,2470.497,13.32,0.012,114.4
2021-01-19T08:52:03,42.805,6.029,0.011,0.0,-0.023,109.0,111.0,106.0,13.4,1505.3,324.2,-0.7,1.8,2470.503,13.32,0.011,90.0
2021-01-19T08:55:03,42.805,6.029,0.016,-0.004,-0.018,110.0,109.0,106.0,13.4,1505.3,324.6,-0.7,1.8,2470.5,13.32,0.016,104.0
2021-01-19T08:58:03,42.805,6.029,0.029,-0.004,0.013,110.0,111.0,105.0,13.4,1505.3,323.4,-0.7,1.8,2470.486,13.32,0.029,97.8
2021-01-19T09:04:03,42.805,6.029,0.035,-0.015,-0.045,109.0,111.0,105.0,13.3,1505.2,326.5,-0.7,1.8,2470.518,13.3,0.038,113.2
2021-01-19T09:07:03,42.805,6.029,0.031,-0.008,0.008,109.0,112.0,106.0,13.4,1505.3,324.5,-0.7,1.8,2470.517,13.31,0.032,104.5
2021-01-19T09:10:03,42.805,6.029,0.045,-0.023,0.023,108.0,110.0,106.0,13.3,1505.3,328.3,-0.7,1.8,2470.551,13.31,0.05,117.1
2021-01-19T09:13:03,42.805,6.029,0.032,-0.028,-0.006,109.0,112.0,105.0,13.3,1505.3,325.9,-0.7,1.8,2470.56,13.32,0.042,131.2
2021-01-19T09:16:03,42.805,6.029,0.02,-0.029,0.007,110.0,112.0,104.0,13.4,1505.3,327.3,-0.7,1.8,2470.544,13.32,0.035,145.4
2021-01-19T09:19:03,42.805,6.029,0.036,-0.002,0.012,109.0,111.0,105.0,13.3,1505.3,323.7,-0.7,1.8,2470.55,13.32,0.036,93.2
2021-01-19T09:22:03,42.805,6.029,0.039,-0.009,0.008,109.0,112.0,105.0,13.4,1505.3,326.8,-0.7,1.8,2470.533,13.32,0.04,103.0
2021-01-19T09:25:03,42.805,6.029,0.042,-0.034,0.024,109.0,111.0,106.0,13.4,1505.3,328.1,-0.7,1.8,2470.502,13.32,0.054,129.0
2021-01-19T09:28:03,42.805,6.029,0.032,-0.017,0.022,110.0,111.0,105.0,13.4,1505.3,323.8,-0.7,1.8,2470.502,13.32,0.036,118.0
2021-01-19T09:31:03,42.805,6.029,0.053,-0.019,0.032,110.0,112.0,104.0,13.3,1505.3,324.0,-0.7,1.8,2470.51,13.32,0.056,109.7
2021-01-19T09:34:03,42.805,6.029,0.026,-0.02,-0.012,111.0,111.0,106.0,13.3,1505.3,327.5,-0.7,1.8,2470.491,13.32,0.032,127.6
2021-01-19T09:37:03,42.805,6.029,0.025,0.005,-0.002,111.0,111.0,106.0,13.4,1505.3,325.6,-0.7,1.8,2470.511,13.32,0.025,78.7
2021-01-19T09:40:03,42.805,6.029,0.04,0.005,0.001,110.0,111.0,105.0,13.4,1505.3,324.9,-0.7,1.9,2470.548,13.32,0.04,82.9
2021-01-19T09:43:03,42.805,6.029,0.041,0.009,-0.003,109.0,112.0,106.0,13.4,1505.3,325.9,-0.7,1.8,2470.529,13.32,0.041,77.6
2021-01-19T09:46:03,42.805,6.029,0.021,-0.01,-0.002,110.0,112.0,105.0,13.4,1505.3,326.5,-0.7,1.8,2470.491,13.32,0.023,115.5
2021-01-19T09:49:03,42.805,6.029,0.041,-0.02,-0.024,110.0,113.0,105.0,13.4,1505.3,325.1,-0.7,1.8,2470.509,13.32,0.045,116.0
2021-01-19T09:52:03,42.805,6.029,0.036,-0.016,-0.006,109.0,112.0,105.0,13.3,1505.3,325.7,-0.7,1.8,2470.531,13.32,0.039,114.0
2021-01-19T09:55:03,42.805,6.029,0.024,-0.026,0.001,110.0,112.0,104.0,13.4,1505.3,327.8,-0.7,1.8,2470.532,13.32,0.035,137.3
2021-01-19T09:58:03,42.805,6.029,0.016,-0.015,0.019,111.0,113.0,105.0,13.3,1505.3,328.2,-0.7,1.8,2470.502,13.32,0.021,133.1
2021-01-19T10:04:03,42.805,6.029,0.051,-0.028,0.018,110.0,111.0,105.0,13.4,1505.2,327.6,-0.7,1.8,2470.554,13.3,0.058,118.8